Year,Month,Day,Hour,Minute,Value (Times are PST for temperature in C)
2013,12,13,00,00,3.20
2013,12,13,00,01,3.20
2013,12,13,00,02,3.20
2013,12,13,00,03,3.20
2013,12,13,00,04,3.20
2013,12,13,00,05,3.20
2013,12,13,00,06,3.20
2013,12,13,00,07,3.20
2013,12,13,00,08,3.20
2013,12,13,00,09,3.20
2013,12,13,00,10,3.20
2013,12,13,00,11,3.20
2013,12,13,00,12,3.20
2013,12,13,00,13,3.20
2013,12,13,00,14,3.20
2013,12,13,00,15,3.20
2013,12,13,00,16,3.20
2013,12,13,00,17,3.20
2013,12,13,00,18,3.20
2013,12,13,00,19,3.20
2013,12,13,00,20,3.20
2013,12,13,00,21,3.20
2013,12,13,00,22,3.20
2013,12,13,00,23,3.20
2013,12,13,00,24,3.20
2013,12,13,00,25,3.20
2013,12,13,00,26,3.20
2013,12,13,00,27,3.20
2013,12,13,00,28,3.20
2013,12,13,00,29,3.20
2013,12,13,00,30,3.20
2013,12,13,00,31,3.30
2013,12,13,00,32,3.30
2013,12,13,00,33,3.30
2013,12,13,00,34,3.30
2013,12,13,00,35,3.30
2013,12,13,00,36,3.30
2013,12,13,00,37,3.30
2013,12,13,00,38,3.30
2013,12,13,00,39,3.30
2013,12,13,00,40,3.30
2013,12,13,00,41,3.30
2013,12,13,00,42,3.40
2013,12,13,00,43,3.40
2013,12,13,00,44,3.40
2013,12,13,00,45,3.40
2013,12,13,00,46,3.40
2013,12,13,00,47,3.40
2013,12,13,00,48,3.40
2013,12,13,00,49,3.40
2013,12,13,00,50,3.40
2013,12,13,00,51,3.40
2013,12,13,00,52,3.40
2013,12,13,00,53,3.40
2013,12,13,00,54,3.40
2013,12,13,00,55,3.40
2013,12,13,00,56,3.30
2013,12,13,00,57,3.30
2013,12,13,00,58,3.30
2013,12,13,00,59,3.30
2013,12,13,01,00,3.30
2013,12,13,01,01,3.40
2013,12,13,01,02,3.40
2013,12,13,01,03,3.40
2013,12,13,01,04,3.40
2013,12,13,01,05,3.40
2013,12,13,01,06,3.40
2013,12,13,01,07,3.40
2013,12,13,01,08,3.40
2013,12,13,01,09,3.40
2013,12,13,01,10,3.40
2013,12,13,01,11,3.40
2013,12,13,01,12,3.50
2013,12,13,01,13,3.50
2013,12,13,01,14,3.50
2013,12,13,01,15,3.50
2013,12,13,01,16,3.50
2013,12,13,01,17,3.50
2013,12,13,01,18,3.50
2013,12,13,01,19,3.50
2013,12,13,01,20,3.50
2013,12,13,01,21,3.40
2013,12,13,01,22,3.40
2013,12,13,01,23,3.40
2013,12,13,01,24,3.40
2013,12,13,01,25,3.40
2013,12,13,01,26,3.40
2013,12,13,01,27,3.30
2013,12,13,01,28,3.30
2013,12,13,01,29,3.30
2013,12,13,01,30,3.30
2013,12,13,01,31,3.30
2013,12,13,01,32,3.30
2013,12,13,01,33,3.30
2013,12,13,01,34,3.30
2013,12,13,01,35,3.30
2013,12,13,01,36,3.30
2013,12,13,01,37,3.30
2013,12,13,01,38,3.30
2013,12,13,01,39,3.30
2013,12,13,01,40,3.30
2013,12,13,01,41,3.30
2013,12,13,01,42,3.30
2013,12,13,01,43,3.30
2013,12,13,01,44,3.30
2013,12,13,01,45,3.20
2013,12,13,01,46,3.20
2013,12,13,01,47,3.20
2013,12,13,01,48,3.20
2013,12,13,01,49,3.20
2013,12,13,01,50,3.20
2013,12,13,01,51,3.20
2013,12,13,01,52,3.20
2013,12,13,01,53,3.20
2013,12,13,01,54,3.20
2013,12,13,01,55,3.20
2013,12,13,01,56,3.20
2013,12,13,01,57,3.20
2013,12,13,01,58,3.20
2013,12,13,01,59,3.10
2013,12,13,02,00,3.10
2013,12,13,02,01,3.10
2013,12,13,02,02,3.10
2013,12,13,02,03,3.10
2013,12,13,02,04,3.10
2013,12,13,02,05,3.10
2013,12,13,02,06,3.10
2013,12,13,02,07,3.10
2013,12,13,02,08,3.10
2013,12,13,02,09,3.10
2013,12,13,02,10,3.10
2013,12,13,02,11,3.10
2013,12,13,02,12,3.10
2013,12,13,02,13,3.10
2013,12,13,02,14,3.10
2013,12,13,02,15,3.10
2013,12,13,02,16,3.10
2013,12,13,02,17,3.10
2013,12,13,02,18,3.10
2013,12,13,02,19,3.10
2013,12,13,02,20,3.10
2013,12,13,02,21,3.10
2013,12,13,02,22,3.20
2013,12,13,02,23,3.10
2013,12,13,02,24,3.10
2013,12,13,02,25,3.20
2013,12,13,02,26,3.20
2013,12,13,02,27,3.10
2013,12,13,02,28,3.10
2013,12,13,02,29,3.10
2013,12,13,02,30,3.10
2013,12,13,02,31,3.20
2013,12,13,02,32,3.20
2013,12,13,02,33,3.20
2013,12,13,02,34,3.20
2013,12,13,02,35,3.20
2013,12,13,02,36,3.20
2013,12,13,02,37,3.20
2013,12,13,02,38,3.20
2013,12,13,02,39,3.20
2013,12,13,02,40,3.20
2013,12,13,02,41,3.20
2013,12,13,02,42,3.20
2013,12,13,02,43,3.20
2013,12,13,02,44,3.20
2013,12,13,02,45,3.20
2013,12,13,02,46,3.20
2013,12,13,02,47,3.20
2013,12,13,02,48,3.20
2013,12,13,02,49,3.20
2013,12,13,02,50,3.20
2013,12,13,02,51,3.20
2013,12,13,02,52,3.20
2013,12,13,02,53,3.20
2013,12,13,02,54,3.20
2013,12,13,02,55,3.20
2013,12,13,02,56,3.30
2013,12,13,02,57,3.20
2013,12,13,02,58,3.30
2013,12,13,02,59,3.30
2013,12,13,03,00,3.30
2013,12,13,03,01,3.30
2013,12,13,03,02,3.30
2013,12,13,03,03,3.30
2013,12,13,03,04,3.30
2013,12,13,03,05,3.30
2013,12,13,03,06,3.30
2013,12,13,03,07,3.30
2013,12,13,03,08,3.40
2013,12,13,03,09,3.40
2013,12,13,03,10,3.40
2013,12,13,03,11,3.40
2013,12,13,03,12,3.40
2013,12,13,03,13,3.40
2013,12,13,03,14,3.40
2013,12,13,03,15,3.40
2013,12,13,03,16,3.40
2013,12,13,03,17,3.50
2013,12,13,03,18,3.50
2013,12,13,03,19,3.50
2013,12,13,03,20,3.50
2013,12,13,03,21,3.50
2013,12,13,03,22,3.50
2013,12,13,03,23,3.50
2013,12,13,03,24,3.60
2013,12,13,03,25,3.60
2013,12,13,03,26,3.60
2013,12,13,03,27,3.60
2013,12,13,03,28,3.60
2013,12,13,03,29,3.60
2013,12,13,03,30,3.60
2013,12,13,03,31,3.60
2013,12,13,03,32,3.60
2013,12,13,03,33,3.60
2013,12,13,03,34,3.60
2013,12,13,03,35,3.60
2013,12,13,03,36,3.60
2013,12,13,03,37,3.60
2013,12,13,03,38,3.60
2013,12,13,03,39,3.60
2013,12,13,03,40,3.60
2013,12,13,03,41,3.60
2013,12,13,03,42,3.60
2013,12,13,03,43,3.60
2013,12,13,03,44,3.60
2013,12,13,03,45,3.60
2013,12,13,03,46,3.60
2013,12,13,03,47,3.60
2013,12,13,03,48,3.60
2013,12,13,03,49,3.60
2013,12,13,03,50,3.60
2013,12,13,03,51,3.60
2013,12,13,03,52,3.60
2013,12,13,03,53,3.60
2013,12,13,03,54,3.60
2013,12,13,03,55,3.50
2013,12,13,03,56,3.50
2013,12,13,03,57,3.50
2013,12,13,03,58,3.50
2013,12,13,03,59,3.50
2013,12,13,04,00,3.50
2013,12,13,04,01,3.50
2013,12,13,04,02,3.50
2013,12,13,04,03,3.50
2013,12,13,04,04,3.50
2013,12,13,04,05,3.50
2013,12,13,04,06,3.50
2013,12,13,04,07,3.50
2013,12,13,04,08,3.50
2013,12,13,04,09,3.50
2013,12,13,04,10,3.50
2013,12,13,04,11,3.60
2013,12,13,04,12,3.60
2013,12,13,04,13,3.60
2013,12,13,04,14,3.60
2013,12,13,04,15,3.60
2013,12,13,04,16,3.60
2013,12,13,04,17,3.60
2013,12,13,04,18,3.60
2013,12,13,04,19,3.60
2013,12,13,04,20,3.60
2013,12,13,04,21,3.60
2013,12,13,04,22,3.60
2013,12,13,04,23,3.60
2013,12,13,04,24,3.60
2013,12,13,04,25,3.60
2013,12,13,04,26,3.60
2013,12,13,04,27,3.60
2013,12,13,04,28,3.60
2013,12,13,04,29,3.60
2013,12,13,04,30,3.60
2013,12,13,04,31,3.60
2013,12,13,04,32,3.60
2013,12,13,04,33,3.60
2013,12,13,04,34,3.60
2013,12,13,04,35,3.60
2013,12,13,04,36,3.60
2013,12,13,04,37,3.60
2013,12,13,04,38,3.60
2013,12,13,04,39,3.60
2013,12,13,04,40,3.60
2013,12,13,04,41,3.60
2013,12,13,04,42,3.60
2013,12,13,04,43,3.60
2013,12,13,04,44,3.60
2013,12,13,04,45,3.60
2013,12,13,04,46,3.60
2013,12,13,04,47,3.60
2013,12,13,04,48,3.60
2013,12,13,04,49,3.60
2013,12,13,04,50,3.60
2013,12,13,04,51,3.60
2013,12,13,04,52,3.60
2013,12,13,04,53,3.60
2013,12,13,04,54,3.60
2013,12,13,04,55,3.60
2013,12,13,04,56,3.50
2013,12,13,04,57,3.50
2013,12,13,04,58,3.50
2013,12,13,04,59,3.50
2013,12,13,05,00,3.50
2013,12,13,05,01,3.50
2013,12,13,05,02,3.50
2013,12,13,05,03,3.50
2013,12,13,05,04,3.40
2013,12,13,05,05,3.40
2013,12,13,05,06,3.40
2013,12,13,05,07,3.40
2013,12,13,05,08,3.40
2013,12,13,05,09,3.40
2013,12,13,05,10,3.30
2013,12,13,05,11,3.30
2013,12,13,05,12,3.30
2013,12,13,05,13,3.30
2013,12,13,05,14,3.30
2013,12,13,05,15,3.20
2013,12,13,05,16,3.20
2013,12,13,05,17,3.20
2013,12,13,05,18,3.10
2013,12,13,05,19,3.10
2013,12,13,05,20,3.10
2013,12,13,05,21,3.10
2013,12,13,05,22,3.10
2013,12,13,05,23,3.10
2013,12,13,05,24,3.10
2013,12,13,05,25,3.10
2013,12,13,05,26,3.10
2013,12,13,05,27,3.10
2013,12,13,05,28,3.10
2013,12,13,08,52,3.00
2013,12,13,08,53,3.00
2013,12,13,08,54,3.10
2013,12,13,08,55,3.10
2013,12,13,08,56,3.10
2013,12,13,08,57,3.10
2013,12,13,08,58,3.10
2013,12,13,08,59,3.10
2013,12,13,09,00,3.10
2013,12,13,09,01,3.10
2013,12,13,09,02,3.10
2013,12,13,09,03,3.10
2013,12,13,09,04,3.10
2013,12,13,09,05,3.10
2013,12,13,09,06,3.20
2013,12,13,09,07,3.20
2013,12,13,09,08,3.20
2013,12,13,09,09,3.20
2013,12,13,09,10,3.20
2013,12,13,09,11,3.30
2013,12,13,09,12,3.30
2013,12,13,09,13,3.30
2013,12,13,09,14,3.30
2013,12,13,09,15,3.30
2013,12,13,09,16,3.30
2013,12,13,09,17,3.30
2013,12,13,09,18,3.40
2013,12,13,09,19,3.40
2013,12,13,09,20,3.40
2013,12,13,09,21,3.40
2013,12,13,09,22,3.40
2013,12,13,09,23,3.40
2013,12,13,09,24,3.30
2013,12,13,09,25,3.30
2013,12,13,09,26,3.30
2013,12,13,09,27,3.30
2013,12,13,09,28,3.30
2013,12,13,09,29,3.40
2013,12,13,09,30,3.40
2013,12,13,09,31,3.40
2013,12,13,09,32,3.40
2013,12,13,09,33,3.40
2013,12,13,09,34,3.40
2013,12,13,09,35,3.40
2013,12,13,09,36,3.40
2013,12,13,09,37,3.50
2013,12,13,09,38,3.50
2013,12,13,09,39,3.50
2013,12,13,09,40,3.50
2013,12,13,09,41,3.60
2013,12,13,09,42,3.60
2013,12,13,09,43,3.60
2013,12,13,09,44,3.70
2013,12,13,09,45,3.70
2013,12,13,09,46,3.70
2013,12,13,09,47,3.70
2013,12,13,09,48,3.80
2013,12,13,09,49,3.80
2013,12,13,09,50,3.80
2013,12,13,09,51,3.90
2013,12,13,09,52,3.90
2013,12,13,09,53,3.90
2013,12,13,09,54,3.90
2013,12,13,09,55,4.00
2013,12,13,09,56,4.00
2013,12,13,09,57,4.00
2013,12,13,09,58,4.10
2013,12,13,09,59,4.10
2013,12,13,10,00,4.10
2013,12,13,10,01,4.10
2013,12,13,10,02,4.20
2013,12,13,10,03,4.20
2013,12,13,10,04,4.20
2013,12,13,10,05,4.20
2013,12,13,10,06,4.30
2013,12,13,10,07,4.30
2013,12,13,10,08,4.30
2013,12,13,10,09,4.30
2013,12,13,10,10,4.30
2013,12,13,10,11,4.40
2013,12,13,10,12,4.40
2013,12,13,10,13,4.40
2013,12,13,10,14,4.40
2013,12,13,10,15,4.40
2013,12,13,10,16,4.50
2013,12,13,10,17,4.50
2013,12,13,10,18,4.50
2013,12,13,10,19,4.50
2013,12,13,10,20,4.50
2013,12,13,10,21,4.50
2013,12,13,10,22,4.60
2013,12,13,10,23,4.60
2013,12,13,10,24,4.60
2013,12,13,10,25,4.70
2013,12,13,10,26,4.70
2013,12,13,10,27,4.80
2013,12,13,10,28,4.80
2013,12,13,10,29,4.80
2013,12,13,10,30,4.90
2013,12,13,10,31,4.90
2013,12,13,10,32,5.00
2013,12,13,10,33,5.00
2013,12,13,10,34,5.10
2013,12,13,10,35,5.10
2013,12,13,10,36,5.10
2013,12,13,10,37,5.10
2013,12,13,10,38,5.10
2013,12,13,10,39,5.10
2013,12,13,10,40,5.10
2013,12,13,10,41,5.10
2013,12,13,10,42,5.10
2013,12,13,10,43,5.10
2013,12,13,10,44,5.20
2013,12,13,10,45,5.20
2013,12,13,10,46,5.20
2013,12,13,10,47,5.20
2013,12,13,10,48,5.20
2013,12,13,10,49,5.20
2013,12,13,10,50,5.20
2013,12,13,10,51,5.30
2013,12,13,10,52,5.30
2013,12,13,10,53,5.30
2013,12,13,10,54,5.30
2013,12,13,10,55,5.30
2013,12,13,10,56,5.30
2013,12,13,10,57,5.30
2013,12,13,10,58,5.30
2013,12,13,10,59,5.30
2013,12,13,11,00,5.30
2013,12,13,11,01,5.30
2013,12,13,11,02,5.40
2013,12,13,11,03,5.40
2013,12,13,11,04,5.40
2013,12,13,11,05,5.50
2013,12,13,11,06,5.50
2013,12,13,11,07,5.60
2013,12,13,11,08,5.60
2013,12,13,11,09,5.60
2013,12,13,11,10,5.70
2013,12,13,11,11,5.80
2013,12,13,11,12,5.80
2013,12,13,11,13,5.80
2013,12,13,11,14,5.80
2013,12,13,11,15,5.80
2013,12,13,11,16,5.90
2013,12,13,11,17,5.90
2013,12,13,11,18,5.90
2013,12,13,11,19,6.00
2013,12,13,11,20,6.00
2013,12,13,11,21,6.00
2013,12,13,11,22,6.00
2013,12,13,11,23,6.10
2013,12,13,11,24,6.10
2013,12,13,11,25,6.10
2013,12,13,11,26,6.10
2013,12,13,11,27,6.10
2013,12,13,11,28,6.10
2013,12,13,11,29,6.00
2013,12,13,11,30,6.00
2013,12,13,11,31,6.00
2013,12,13,11,32,6.00
2013,12,13,11,33,6.00
2013,12,13,11,34,5.90
2013,12,13,11,35,6.00
2013,12,13,11,36,6.00
2013,12,13,11,37,6.00
2013,12,13,11,38,6.00
2013,12,13,11,39,6.00
2013,12,13,11,40,6.00
2013,12,13,11,41,6.00
2013,12,13,11,42,6.00
2013,12,13,11,43,6.10
2013,12,13,11,44,6.10
2013,12,13,11,45,6.10
2013,12,13,11,46,6.10
2013,12,13,11,47,6.10
2013,12,13,11,48,6.10
2013,12,13,11,49,6.10
2013,12,13,11,50,6.10
2013,12,13,11,51,6.10
2013,12,13,11,52,6.10
2013,12,13,11,53,6.10
2013,12,13,11,54,6.10
2013,12,13,11,55,6.20
2013,12,13,11,56,6.20
2013,12,13,11,57,6.20
2013,12,13,11,58,6.20
2013,12,13,11,59,6.20
2013,12,13,12,00,6.20
2013,12,13,12,01,6.20
2013,12,13,12,02,6.20
2013,12,13,12,03,6.10
2013,12,13,12,04,6.10
2013,12,13,12,05,6.10
2013,12,13,12,06,6.00
2013,12,13,12,07,6.00
2013,12,13,12,08,6.00
2013,12,13,12,09,6.00
2013,12,13,12,10,6.00
2013,12,13,12,11,6.00
2013,12,13,12,12,6.00
2013,12,13,12,13,6.00
2013,12,13,12,14,6.00
2013,12,13,12,15,6.00
2013,12,13,12,16,6.00
2013,12,13,12,17,5.90
2013,12,13,12,18,5.90
2013,12,13,12,19,5.90
2013,12,13,12,20,5.90
2013,12,13,12,21,5.90
2013,12,13,12,22,6.00
2013,12,13,12,23,6.00
2013,12,13,12,24,6.00
2013,12,13,12,25,6.00
2013,12,13,12,26,6.10
2013,12,13,12,27,6.10
2013,12,13,12,28,6.10
2013,12,13,12,29,6.10
2013,12,13,12,30,6.10
2013,12,13,12,31,6.20
2013,12,13,12,32,6.20
2013,12,13,12,33,6.20
2013,12,13,12,34,6.20
2013,12,13,12,35,6.20
2013,12,13,12,36,6.20
2013,12,13,12,37,6.20
2013,12,13,12,38,6.30
2013,12,13,12,39,6.30
2013,12,13,12,40,6.30
2013,12,13,12,41,6.30
2013,12,13,12,42,6.30
2013,12,13,12,43,6.30
2013,12,13,12,44,6.30
2013,12,13,12,45,6.40
2013,12,13,12,46,6.40
2013,12,13,12,47,6.40
2013,12,13,12,48,6.40
2013,12,13,12,49,6.40
2013,12,13,12,50,6.40
2013,12,13,12,51,6.40
2013,12,13,12,52,6.40
2013,12,13,12,53,6.40
2013,12,13,12,54,6.50
2013,12,13,12,55,6.50
2013,12,13,12,56,6.50
2013,12,13,12,57,6.50
2013,12,13,12,58,6.50
2013,12,13,12,59,6.50
2013,12,13,13,00,6.50
2013,12,13,13,01,6.60
2013,12,13,13,02,6.60
2013,12,13,13,03,6.60
2013,12,13,13,04,6.60
2013,12,13,13,05,6.60
2013,12,13,13,06,6.60
2013,12,13,13,07,6.60
2013,12,13,13,08,6.60
2013,12,13,13,09,6.60
2013,12,13,13,10,6.60
2013,12,13,13,11,6.60
2013,12,13,13,12,6.60
2013,12,13,13,13,6.60
2013,12,13,13,14,6.60
2013,12,13,13,15,6.60
2013,12,13,13,16,6.60
2013,12,13,13,17,6.60
2013,12,13,13,18,6.60
2013,12,13,13,19,6.60
2013,12,13,13,20,6.60
2013,12,13,13,21,6.60
2013,12,13,13,22,6.60
2013,12,13,13,23,6.60
2013,12,13,13,24,6.60
2013,12,13,13,25,6.60
2013,12,13,13,26,6.60
2013,12,13,13,27,6.60
2013,12,13,13,28,6.60
2013,12,13,13,29,6.60
2013,12,13,13,30,6.60
2013,12,13,13,31,6.60
2013,12,13,13,32,6.60
2013,12,13,13,33,6.60
2013,12,13,13,34,6.60
2013,12,13,13,35,6.60
2013,12,13,13,36,6.60
2013,12,13,13,37,6.70
2013,12,13,13,38,6.70
2013,12,13,13,39,6.70
2013,12,13,13,40,6.70
2013,12,13,13,41,6.70
2013,12,13,13,42,6.70
2013,12,13,13,43,6.70
2013,12,13,13,44,6.70
2013,12,13,13,45,6.70
2013,12,13,13,46,6.70
2013,12,13,13,47,6.80
2013,12,13,13,48,6.80
2013,12,13,13,49,6.80
2013,12,13,13,50,6.80
2013,12,13,13,51,6.80
2013,12,13,13,52,6.80
2013,12,13,13,53,6.80
2013,12,13,13,54,6.80
2013,12,13,13,55,6.80
2013,12,13,13,56,6.80
2013,12,13,13,57,6.90
2013,12,13,13,58,6.90
2013,12,13,13,59,6.90
2013,12,13,14,00,6.90
2013,12,13,14,01,6.90
2013,12,13,14,02,6.90
2013,12,13,14,03,6.90
2013,12,13,14,04,7.00
2013,12,13,14,05,7.00
2013,12,13,14,06,7.00
2013,12,13,14,07,7.10
2013,12,13,14,08,7.10
2013,12,13,14,09,7.10
2013,12,13,14,10,7.10
2013,12,13,14,11,7.10
2013,12,13,14,12,7.10
2013,12,13,14,13,7.10
2013,12,13,14,14,7.10
2013,12,13,14,15,7.10
2013,12,13,14,16,7.10
2013,12,13,14,17,7.10
2013,12,13,14,18,7.10
2013,12,13,14,19,7.10
2013,12,13,14,20,7.10
2013,12,13,14,21,7.10
2013,12,13,14,22,7.00
2013,12,13,14,23,7.00
2013,12,13,14,24,7.10
2013,12,13,14,25,7.10
2013,12,13,14,26,7.10
2013,12,13,14,27,7.10
2013,12,13,14,28,7.20
2013,12,13,14,29,7.20
2013,12,13,14,30,7.20
2013,12,13,14,31,7.20
2013,12,13,14,32,7.10
2013,12,13,14,33,7.10
2013,12,13,14,34,7.10
2013,12,13,14,35,7.10
2013,12,13,14,36,7.10
2013,12,13,14,37,7.10
2013,12,13,14,38,7.10
2013,12,13,14,39,7.10
2013,12,13,14,40,7.10
2013,12,13,14,41,7.10
2013,12,13,14,42,7.20
2013,12,13,14,43,7.20
2013,12,13,14,44,7.20
2013,12,13,14,45,7.20
2013,12,13,14,46,7.10
2013,12,13,14,47,7.10
2013,12,13,14,48,7.10
2013,12,13,14,49,7.10
2013,12,13,14,50,7.10
2013,12,13,14,51,7.10
2013,12,13,14,52,7.10
2013,12,13,14,53,7.10
2013,12,13,14,54,7.10
2013,12,13,14,55,7.10
2013,12,13,14,56,7.10
2013,12,13,14,57,7.10
2013,12,13,14,58,7.10
2013,12,13,14,59,7.10
2013,12,13,15,00,7.10
2013,12,13,15,01,7.00
2013,12,13,15,02,7.00
2013,12,13,15,03,7.00
2013,12,13,15,04,7.00
2013,12,13,15,05,7.00
2013,12,13,15,06,7.00
2013,12,13,15,07,7.00
2013,12,13,15,08,7.00
2013,12,13,15,09,7.00
2013,12,13,15,10,7.10
2013,12,13,15,11,7.10
2013,12,13,15,12,7.00
2013,12,13,15,13,7.10
2013,12,13,15,14,7.10
2013,12,13,15,15,7.10
2013,12,13,15,16,7.10
2013,12,13,15,17,7.10
2013,12,13,15,18,7.10
2013,12,13,15,19,7.10
2013,12,13,15,20,7.10
2013,12,13,15,21,7.10
2013,12,13,15,22,7.10
2013,12,13,15,23,7.10
2013,12,13,15,24,7.10
2013,12,13,15,25,7.20
2013,12,13,15,26,7.20
2013,12,13,15,27,7.20
2013,12,13,15,28,7.20
2013,12,13,15,29,7.20
2013,12,13,15,30,7.20
2013,12,13,15,31,7.20
2013,12,13,15,32,7.20
2013,12,13,15,33,7.10
2013,12,13,15,34,7.10
2013,12,13,15,35,7.10
2013,12,13,15,36,7.10
2013,12,13,15,37,7.10
2013,12,13,15,38,7.10
2013,12,13,15,39,7.10
2013,12,13,15,40,7.00
2013,12,13,15,41,7.00
2013,12,13,15,42,7.00
2013,12,13,15,43,7.00
2013,12,13,15,44,7.00
2013,12,13,15,45,7.00
2013,12,13,15,46,7.00
2013,12,13,15,47,7.00
2013,12,13,15,48,7.00
2013,12,13,15,49,7.00
2013,12,13,15,50,7.00
2013,12,13,15,51,7.00
2013,12,13,15,52,7.00
2013,12,13,15,53,7.00
2013,12,13,15,54,7.00
2013,12,13,15,55,7.00
2013,12,13,15,56,7.00
2013,12,13,15,57,7.00
2013,12,13,15,58,7.10
2013,12,13,15,59,7.00
2013,12,13,16,00,7.00
2013,12,13,16,01,7.00
2013,12,13,16,02,7.00
2013,12,13,16,03,7.00
2013,12,13,16,04,7.00
2013,12,13,16,05,7.00
2013,12,13,16,06,7.00
2013,12,13,16,07,7.00
2013,12,13,16,08,7.00
2013,12,13,16,09,7.00
2013,12,13,16,10,6.90
2013,12,13,16,11,6.90
2013,12,13,16,12,6.90
2013,12,13,16,13,6.90
2013,12,13,16,14,6.90
2013,12,13,16,15,6.90
2013,12,13,16,16,6.90
2013,12,13,16,17,6.90
2013,12,13,16,18,6.90
2013,12,13,16,19,6.90
2013,12,13,16,20,6.90
2013,12,13,16,21,6.90
2013,12,13,16,22,6.90
2013,12,13,16,23,6.90
2013,12,13,16,24,6.90
2013,12,13,16,25,6.90
2013,12,13,16,26,6.90
2013,12,13,16,27,6.90
2013,12,13,16,28,6.90
2013,12,13,16,29,6.90
2013,12,13,16,30,6.90
2013,12,13,16,31,6.90
2013,12,13,16,32,6.90
2013,12,13,16,33,6.90
2013,12,13,16,34,6.90
2013,12,13,16,35,6.90
2013,12,13,16,36,6.90
2013,12,13,16,37,6.90
2013,12,13,16,38,6.90
2013,12,13,16,39,6.90
2013,12,13,16,40,6.90
2013,12,13,16,41,6.90
2013,12,13,16,42,6.90
2013,12,13,16,43,6.90
2013,12,13,16,44,6.90
2013,12,13,16,45,6.90
2013,12,13,16,46,6.90
2013,12,13,16,47,6.90
2013,12,13,16,48,6.90
2013,12,13,16,49,6.90
2013,12,13,16,50,6.90
2013,12,13,16,51,6.90
2013,12,13,16,52,6.80
2013,12,13,16,53,6.80
2013,12,13,16,54,6.80
2013,12,13,16,55,6.80
2013,12,13,16,56,6.80
2013,12,13,16,57,6.80
2013,12,13,16,58,6.80
2013,12,13,16,59,6.80
2013,12,13,17,00,6.80
2013,12,13,17,01,6.80
2013,12,13,17,02,6.80
2013,12,13,17,03,6.80
2013,12,13,17,04,6.80
2013,12,13,17,05,6.80
2013,12,13,17,06,6.80
2013,12,13,17,07,6.80
2013,12,13,17,08,6.80
2013,12,13,17,09,6.80
2013,12,13,17,10,6.80
2013,12,13,17,11,6.80
2013,12,13,17,12,6.80
2013,12,13,17,13,6.80
2013,12,13,17,14,6.80
2013,12,13,17,15,6.80
2013,12,13,17,16,6.80
2013,12,13,17,17,6.80
2013,12,13,17,18,6.70
2013,12,13,17,19,6.70
2013,12,13,17,20,6.70
2013,12,13,17,21,6.70
2013,12,13,17,22,6.70
2013,12,13,17,23,6.70
2013,12,13,17,24,6.70
2013,12,13,17,25,6.70
2013,12,13,17,26,6.60
2013,12,13,17,27,6.60
2013,12,13,17,28,6.60
2013,12,13,17,29,6.60
2013,12,13,17,30,6.60
2013,12,13,17,31,6.60
2013,12,13,17,32,6.60
2013,12,13,17,33,6.60
2013,12,13,17,34,6.60
2013,12,13,17,35,6.60
2013,12,13,17,36,6.50
2013,12,13,17,37,6.50
2013,12,13,17,38,6.50
2013,12,13,17,39,6.50
2013,12,13,17,40,6.50
2013,12,13,17,41,6.50
2013,12,13,17,42,6.50
2013,12,13,17,43,6.50
2013,12,13,17,44,6.50
2013,12,13,17,45,6.40
2013,12,13,17,46,6.40
2013,12,13,17,47,6.40
2013,12,13,17,48,6.40
2013,12,13,17,49,6.40
2013,12,13,17,50,6.40
2013,12,13,17,51,6.40
2013,12,13,17,52,6.40
2013,12,13,17,53,6.40
2013,12,13,17,54,6.40
2013,12,13,17,55,6.40
2013,12,13,17,56,6.40
2013,12,13,17,57,6.40
2013,12,13,17,58,6.40
2013,12,13,17,59,6.40
2013,12,13,18,00,6.40
2013,12,13,18,01,6.40
2013,12,13,18,02,6.40
2013,12,13,18,03,6.40
2013,12,13,18,04,6.40
2013,12,13,18,05,6.40
2013,12,13,18,06,6.40
2013,12,13,18,07,6.40
2013,12,13,18,08,6.40
2013,12,13,18,09,6.40
2013,12,13,18,10,6.40
2013,12,13,18,11,6.40
2013,12,13,18,12,6.40
2013,12,13,18,13,6.40
2013,12,13,18,14,6.40
2013,12,13,18,15,6.40
2013,12,13,18,16,6.40
2013,12,13,18,17,6.40
2013,12,13,18,18,6.40
2013,12,13,18,19,6.40
2013,12,13,18,20,6.40
2013,12,13,18,21,6.40
2013,12,13,18,22,6.40
2013,12,13,18,23,6.40
2013,12,13,18,24,6.40
2013,12,13,18,25,6.40
2013,12,13,18,26,6.40
2013,12,13,18,27,6.40
2013,12,13,18,28,6.40
2013,12,13,18,29,6.40
2013,12,13,18,30,6.40
2013,12,13,18,31,6.40
2013,12,13,18,32,6.30
2013,12,13,18,33,6.30
2013,12,13,18,34,6.30
2013,12,13,18,35,6.30
2013,12,13,18,36,6.30
2013,12,13,18,37,6.30
2013,12,13,18,38,6.30
2013,12,13,18,39,6.30
2013,12,13,18,40,6.30
2013,12,13,18,41,6.30
2013,12,13,18,42,6.30
2013,12,13,18,43,6.30
2013,12,13,18,44,6.30
2013,12,13,18,45,6.30
2013,12,13,18,46,6.30
2013,12,13,18,47,6.30
2013,12,13,18,48,6.30
2013,12,13,18,49,6.30
2013,12,13,18,50,6.30
2013,12,13,18,51,6.30
2013,12,13,18,52,6.30
2013,12,13,18,53,6.30
2013,12,13,18,54,6.30
2013,12,13,18,55,6.30
2013,12,13,18,56,6.30
2013,12,13,18,57,6.30
2013,12,13,18,58,6.30
2013,12,13,18,59,6.30
2013,12,13,19,00,6.30
2013,12,13,19,01,6.20
2013,12,13,19,02,6.20
2013,12,13,19,03,6.20
2013,12,13,19,04,6.20
2013,12,13,19,05,6.20
2013,12,13,19,06,6.20
2013,12,13,19,07,6.20
2013,12,13,19,08,6.20
2013,12,13,19,09,6.20
2013,12,13,19,10,6.20
2013,12,13,19,11,6.20
2013,12,13,19,12,6.20
2013,12,13,19,13,6.20
2013,12,13,19,14,6.20
2013,12,13,19,15,6.20
2013,12,13,19,16,6.20
2013,12,13,19,17,6.20
2013,12,13,19,18,6.20
2013,12,13,19,19,6.20
2013,12,13,19,20,6.20
2013,12,13,19,21,6.20
2013,12,13,19,22,6.20
2013,12,13,19,23,6.20
2013,12,13,19,24,6.20
2013,12,13,19,25,6.20
2013,12,13,19,26,6.20
2013,12,13,19,27,6.20
2013,12,13,19,28,6.20
2013,12,13,19,29,6.20
2013,12,13,19,30,6.20
2013,12,13,19,31,6.20
2013,12,13,19,32,6.20
2013,12,13,19,33,6.20
2013,12,13,19,34,6.20
2013,12,13,19,35,6.20
2013,12,13,19,36,6.20
2013,12,13,19,37,6.20
2013,12,13,19,38,6.20
2013,12,13,19,39,6.20
2013,12,13,19,40,6.20
2013,12,13,19,41,6.10
2013,12,13,19,42,6.10
2013,12,13,19,43,6.10
2013,12,13,19,44,6.00
2013,12,13,19,45,6.00
2013,12,13,19,46,5.90
2013,12,13,19,47,5.90
2013,12,13,19,48,5.90
2013,12,13,19,49,5.90
2013,12,13,19,50,5.90
2013,12,13,19,51,5.90
2013,12,13,19,52,5.90
2013,12,13,19,53,5.80
2013,12,13,19,54,5.80
2013,12,13,19,55,5.80
2013,12,13,19,56,5.80
2013,12,13,19,57,5.80
2013,12,13,19,58,5.80
2013,12,13,19,59,5.80
2013,12,13,20,00,5.80
2013,12,13,20,01,5.80
2013,12,13,20,02,5.80
2013,12,13,20,03,5.80
2013,12,13,20,04,5.80
2013,12,13,20,05,5.80
2013,12,13,20,06,5.80
2013,12,13,20,07,5.80
2013,12,13,20,08,5.80
2013,12,13,20,09,5.80
2013,12,13,20,10,5.80
2013,12,13,20,11,5.80
2013,12,13,20,12,5.80
2013,12,13,20,13,5.80
2013,12,13,20,14,5.80
2013,12,13,20,15,5.80
2013,12,13,20,16,5.80
2013,12,13,20,17,5.80
2013,12,13,20,18,5.80
2013,12,13,20,19,5.80
2013,12,13,20,20,5.80
2013,12,13,20,21,5.80
2013,12,13,20,22,5.80
2013,12,13,20,23,5.80
2013,12,13,20,24,5.80
2013,12,13,20,25,5.80
2013,12,13,20,26,5.80
2013,12,13,20,27,5.80
2013,12,13,20,28,5.80
2013,12,13,20,29,5.80
2013,12,13,20,30,5.80
2013,12,13,20,31,5.80
2013,12,13,20,32,5.80
2013,12,13,20,33,5.80
2013,12,13,20,34,5.80
2013,12,13,20,35,5.80
2013,12,13,20,36,5.80
2013,12,13,20,37,5.80
2013,12,13,20,38,5.80
2013,12,13,20,39,5.80
2013,12,13,20,40,5.80
2013,12,13,20,41,5.80
2013,12,13,20,42,5.80
2013,12,13,20,43,5.80
2013,12,13,20,44,5.80
2013,12,13,20,45,5.80
2013,12,13,20,46,5.80
2013,12,13,20,47,5.80
2013,12,13,20,48,5.80
2013,12,13,20,49,5.80
2013,12,13,20,50,5.80
2013,12,13,20,51,5.80
2013,12,13,20,52,5.80
2013,12,13,20,53,5.80
2013,12,13,20,54,5.80
2013,12,13,20,55,5.80
2013,12,13,20,56,5.80
2013,12,13,20,57,5.80
2013,12,13,20,58,5.80
2013,12,13,20,59,5.80
2013,12,13,21,00,5.80
2013,12,13,21,01,5.80
2013,12,13,21,02,5.80
2013,12,13,21,03,5.80
2013,12,13,21,04,5.80
2013,12,13,21,05,5.80
2013,12,13,21,06,5.80
2013,12,13,21,07,5.80
2013,12,13,21,08,5.80
2013,12,13,21,09,5.80
2013,12,13,21,10,5.80
2013,12,13,21,11,5.80
2013,12,13,21,12,5.80
2013,12,13,21,13,5.80
2013,12,13,21,14,5.80
2013,12,13,21,15,5.80
2013,12,13,21,16,5.80
2013,12,13,21,17,5.80
2013,12,13,21,18,5.80
2013,12,13,21,19,5.90
2013,12,13,21,20,5.90
2013,12,13,21,21,5.90
2013,12,13,21,22,5.90
2013,12,13,21,23,5.90
2013,12,13,21,24,5.90
2013,12,13,21,25,5.80
2013,12,13,21,26,5.80
2013,12,13,21,27,5.80
2013,12,13,21,28,5.80
2013,12,13,21,29,5.80